* Astronomy

Members Login
Post Info TOPIC: Asteroid 2010 PY75


L

Posts: 131433
Date:
Asteroid 2010 PY75
Permalink  
 


Orbital elements:
2010 PY75 Earth MOID = 0.2433 AU
Epoch 2010 July 23.0 TT = JDT 2455400.5 MPC
M 340.89664 (2000.0) P Q
n 0.23926011 Peri. 135.97323 +0.59311749 -0.62077022
a 2.5697400 Node 270.28484 +0.52065928 +0.78145785
e 0.7661335 Incl. 30.84392 +0.61410550 -0.06299179
P 4.12 H 18.4 G 0.15 U 8

MPEC 2010 - Q13


__________________
Page 1 of 1  sorted by
Quick Reply

Please log in to post quick replies.



Create your own FREE Forum
Report Abuse
Powered by ActiveBoard